MST,Max TemperatureF,Mean TemperatureF,Min TemperatureF,Max Dew PointF,MeanDew PointF,Min DewpointF,Max Humidity, Mean Humidity, Min Humidity, Max Sea Level PressureIn, Mean Sea Level PressureIn, Min Sea Level PressureIn, Max VisibilityMiles, Mean VisibilityMiles, Min VisibilityMiles, Max Wind SpeedMPH, Mean Wind SpeedMPH, Max Gust SpeedMPH,PrecipitationIn, CloudCover, Events, WindDirDegrees
2012-11-1,70,53,35,24,21,18,52,34,16,30.10,29.99,29.88,10,10,10,13,3,14,0.00,0,,125
2012-11-2,67,51,34,22,17,11,47,30,13,30.07,30.00,29.93,10,10,9,8,2,10,0.00,0,,262
2012-11-3,65,47,29,18,16,11,44,30,16,30.20,30.14,30.05,10,10,10,8,2,9,0.00,0,,268
2012-11-4,65,46,27,18,16,12,55,36,16,30.35,30.27,30.18,10,10,10,7,1,8,0.00,0,,237
2012-11-5,66,48,30,25,20,13,51,36,20,30.39,30.29,30.21,10,10,10,8,1,12,0.00,0,,312
2012-11-6,66,49,32,27,23,19,56,39,22,30.32,30.24,30.16,10,10,10,9,2,12,0.00,0,,270
2012-11-7,68,49,30,25,22,17,58,39,19,30.22,30.07,29.94,10,10,10,9,2,13,0.00,0,,130
2012-11-8,71,53,34,29,20,18,52,33,13,29.93,29.78,29.59,10,10,10,26,8,31,0.00,2,,173
2012-11-9,64,55,45,42,36,27,55,41,27,29.60,29.51,29.39,10,10,9,35,18,44,0.03,5,Rain,186
2012-11-10,46,37,27,30,24,11,100,64,27,29.94,29.72,29.51,10,8,0,25,12,32,0.03,5,Fog-Snow,251
2012-11-11,39,27,15,19,13,5,81,53,25,30.48,30.24,29.97,10,10,10,20,7,25,0.00,0,,267
2012-11-12,42,27,12,16,11,7,73,49,25,30.62,30.52,30.44,10,10,10,13,2,15,0.00,0,,151
2012-11-13,47,32,16,16,12,8,80,52,23,30.53,30.43,30.35,10,10,10,6,1,8,0.00,0,,280
2012-11-14,50,35,19,21,15,10,68,46,24,30.45,30.34,30.26,10,10,2,8,2,10,0.00,0,,267
2012-11-15,54,35,16,21,16,9,73,50,26,30.43,30.34,30.28,10,10,10,8,2,8,0.00,0,,239
2012-11-16,51,37,23,25,20,11,63,48,32,30.28,30.21,30.12,10,10,10,16,3,20,T,5,Rain,333
2012-11-17,58,43,28,30,27,23,78,57,35,30.19,30.10,30.02,10,10,10,10,3,14,T,5,,315
2012-11-18,61,48,35,34,29,26,75,52,29,30.11,30.05,30.00,10,10,10,16,5,22,0.00,4,,207
2012-11-19,60,44,27,30,27,22,72,53,33,30.30,30.23,30.12,10,10,10,12,2,15,0.00,0,,352
2012-11-20,60,45,29,30,25,18,70,49,28,30.34,30.24,30.16,10,10,10,12,2,13,0.00,0,,159
2012-11-21,58,41,24,25,21,16,69,47,24,30.21,30.11,30.01,10,10,10,10,3,13,0.00,0,,297
2012-11-22,60,42,23,23,20,15,63,44,24,30.38,30.24,30.06,10,10,10,12,3,14,0.00,0,,270
2012-11-23,57,40,22,22,18,14,63,45,26,30.51,30.43,30.37,10,10,10,9,2,10,0.00,0,,289
2012-11-24,56,38,20,21,17,14,68,46,24,30.40,30.27,30.12,10,10,10,9,2,10,0.00,0,,318
2012-11-25,54,37,20,19,16,12,63,44,24,30.13,30.05,29.95,10,10,10,8,2,10,0.00,0,,297
2012-11-26,54,37,20,19,14,11,68,45,22,30.32,30.20,30.03,10,10,10,8,2,10,0.00,0,,309
2012-11-27,54,37,20,15,11,6,57,38,19,30.44,30.35,30.30,10,10,10,9,1,9,0.00,0,,281
2012-11-28,53,36,19,14,11,4,50,36,22,30.42,30.28,30.15,10,10,10,12,2,13,0.00,0,,317
2012-11-29,55,39,23,18,14,8,50,36,22,30.25,30.17,30.11,10,10,10,12,2,12,0.00,0,,307
2012-11-30,60,45,29,31,25,9,56,43,29,30.14,30.03,29.91,10,10,10,16,6,22,0.00,1,,166